Regional Weather Roundup
Issued by NWS

Home | Current Version | Previous Version | Graphics & Text | Print | Product List | Glossary On
Versions: 1 2 3 4 5 6 7 8 9 10 11 12 13 14 15 16 17 18 19 20 21 22 23 24 25 26 27 28 29 30 31 32 33 34 35 36 37 38 39 40 41 42 43 44 45 46 47 48 49 50
000
ASUS43 KBIS 252010
RWRND

NORTH DAKOTA REGIONAL WEATHER ROUNDUP
NATIONAL WEATHER SERVICE BISMARCK ND
300 PM CDT MON SEP 25 2017

NOTE: "FAIR" INDICATES FEW OR NO CLOUDS BELOW 12,000 FEET WITH NO
SIGNIFICANT WEATHER AND/OR OBSTRUCTIONS TO VISIBILITY.


NDZ001>003-009>011-017-252100-
NORTHWEST NORTH DAKOTA

CITY           SKY/WX    TMP DP  RH WIND       PRES   REMARKS
WILLISTON      CLOUDY    53  43  68 NE5       30.13F
MINOT          CLOUDY    54  43  66 E6        30.13F
MINOT AFB      CLOUDY    54  42  65 E7        30.12F
$$

NDZ018>021-031>035-040>046-252100-
SOUTHWEST NORTH DAKOTA

CITY           SKY/WX    TMP DP  RH WIND       PRES   REMARKS
BISMARCK       CLOUDY    53  44  71 N3        30.14F
DICKINSON      LGT RAIN  46  44  93 SW3       30.11F FOG
GARRISON         N/A     51  43  74 CALM      30.13F
HETTINGER ARPT CLOUDY    48  39  71 SE5       30.13F
$$

NDZ004>008-012>016-024-026-027-054-252100-
NORTHEAST NORTH DAKOTA

CITY           SKY/WX    TMP DP  RH WIND       PRES   REMARKS
GRAND FORKS    CLOUDY    53  47  79 N9        30.11F
GRND FRKS AFB  CLOUDY    53  45  74 NE15      30.12F
DEVILS LAKE    CLOUDY    51  41  68 NE10      30.15F
$$

NDZ022-023-025-028>030-036>039-047>053-252100-
SOUTHEAST NORTH DAKOTA

CITY           SKY/WX    TMP DP  RH WIND       PRES   REMARKS
FARGO          CLOUDY    53  48  83 N15       30.09F
JAMESTOWN      CLOUDY    50  43  77 N10       30.12F
$$





USA.gov is the U.S. government's official web portal to all federal, state and local government web resources and services.